#timestamp,LO_Frequency,Hit,StdDev 
1509094815.9,286047002.2,N
1509094835.7,286046999.0,N
1509094855.5,286046993.7,N
1509094875.4,286046994.4,N
1509094895.2,286046994.2,N
1509094915.0,286046993.3,N
1509094916.0,286046993.3,N
1509094935.8,286046994.8,N
1509094955.6,286046992.8,N
1509094975.5,286046994.2,N
1509094995.3,286046993.9,N
1509095015.1,286046994.4,N
1509095035.8,286046993.5,N
1509095055.7,286046993.0,N
1509095075.5,286046991.0,N
1509095095.3,286046987.4,N
1509095115.2,286046991.2,N
1509095135.0,286046986.7,N
1509095135.9,286046986.7,N
1509095155.7,286046988.1,N
1509095175.6,286046987.9,N
1509095195.4,286046988.6,N
1509095215.3,286046983.7,Y
1509095235.1,286046989.1,P
1509095236.0,286046989.1,P
1509095255.8,286046989.1,P
1509095275.7,286046986.9,Y
1509095295.5,286046995.5,P
1509095315.3,286046997.2,N
1509095335.2,286046995.5,N
1509095355.9,286046992.2,Y
1509095375.7,286046999.8,P
1509095395.6,286046999.7,N
1509095415.4,286047003.9,N
1509095435.2,286047001.8,N
1509095455.1,286047002.9,N
1509095456.0,286047002.9,N
1509095475.8,286047001.7,N
1509095495.6,286047004.0,N
1509095515.5,286047007.6,N
1509095535.3,286047005.2,N
1509095555.1,286047004.8,N
1509095575.9,286047007.6,N
1509095595.7,286047007.3,N
1509095615.5,286047004.6,N
1509095635.4,286047008.4,N
1509095655.2,286047006.6,N
1509095675.1,286047011.4,Y
1509095676.0,286047011.4,P
1509095695.8,286047011.3,N
1509095715.6,286047006.3,N
1509095735.5,286047006.8,N
1509095755.3,286047010.5,Y
1509095775.1,286046998.9,P
1509095795.9,286047003.1,N
1509095815.7,286047006.9,N
1509095835.5,286047005.5,N
1509095855.4,286047007.5,N
1509095875.2,286047003.5,N
1509095895.0,286047002.2,N
1509095895.9,286047002.2,N
1509095915.8,286047005.0,N
1509095935.6,286047004.9,N
1509095955.4,286047006.2,N
1509095975.3,286047007.8,Y
1509095995.1,286047005.1,P
1509096015.9,286047007.6,P
1509096035.7,286047006.7,P
1509096055.5,286047007.0,Y
1509096075.4,286047002.2,P
1509096095.2,286047001.6,N
1509096115.0,286047003.6,N
1509096115.9,286047003.6,N
1509096135.8,286047005.5,Y
1509096155.6,286047003.1,P
1509096175.4,286047007.2,P
1509096195.3,286047005.5,N
1509096215.1,286047006.6,Y
1509096235.9,286047000.6,P
1509096255.7,286046997.8,N
1509096275.5,286046999.4,N
1509096295.3,286047000.3,N
1509096315.2,286047002.5,N
1509096335.0,286047001.9,N
1509096335.9,286047001.9,N
1509096355.8,286047004.1,N
1509096375.6,286047005.0,N
1509096395.4,286047004.7,N
1509096415.3,286047005.5,N
1509096435.1,286047007.6,Y
1509096455.8,286047001.4,P
1509096475.7,286047000.7,N
1509096495.5,286046999.9,N
1509096515.3,286047002.1,N
1509096535.2,286046998.0,N
1509096555.9,286046999.3,N
1509096575.7,286046996.2,N
1509096595.6,286046994.1,N
1509096615.4,286046993.9,N
1509096635.2,286046996.1,N
1509096655.1,286046995.3,N
1509096656.0,286046995.3,N
1509096675.8,286046996.2,N
1509096695.6,286046996.3,N
1509096715.5,286046995.8,N
1509096735.3,286046993.3,N
1509096755.1,286046991.8,N
1509096775.9,286046996.0,N
1509096795.7,286046992.2,N
1509096815.5,286046992.3,N
1509096835.4,286046997.7,N
1509096855.2,286046996.2,N
1509096875.0,286046992.8,N
1509096876.0,286046992.8,N
1509096895.8,286046989.4,Y
1509096915.6,286046992.0,P
1509096935.5,286046992.4,P
1509096955.3,286046993.8,P
1509096975.1,286046993.4,Y
1509096995.9,286047005.5,P
1509097015.7,286046999.9,N
1509097035.5,286046999.0,N
1509097055.4,286046996.9,N
1509097075.2,286046999.1,N
1509097095.0,286047000.0,N
1509097096.0,286047000.0,N
1509097115.8,286047002.2,N
1509097135.6,286047000.1,N
1509097155.5,286047002.3,N
1509097175.3,286047000.6,N
1509097195.1,286046998.2,N
1509097215.9,286047006.0,N
1509097235.7,286047002.9,N
1509097255.5,286047000.8,N
1509097275.4,286047000.8,N
1509097295.2,286046998.3,N
1509097315.0,286046997.4,N
1509097315.9,286046997.4,N
1509097335.8,286046999.0,N
1509097355.6,286046998.9,N
1509097375.4,286046998.6,N
1509097395.3,286047001.7,N
1509097415.1,286047005.0,N
1509097435.8,286047005.9,N
1509097455.7,286047001.0,N
1509097475.5,286046997.6,N
1509097495.3,286047000.0,N
1509097515.2,286046999.3,N
1509097535.9,286047001.9,N
1509097555.7,286047003.0,N
1509097575.6,286047002.8,N
1509097595.4,286047000.7,N
1509097615.2,286046999.9,N
1509097635.1,286046997.8,N
1509097636.0,286046997.8,N
1509097655.8,286047000.6,N
1509097675.6,286046993.3,N
1509097695.5,286046998.3,N
1509097715.3,286046999.1,N
1509097735.1,286046994.9,N
1509097755.9,286046997.5,N
1509097775.7,286046999.0,N
1509097795.6,286046998.0,N
1509097815.4,286047000.8,N
1509097835.2,286047001.2,N
1509097855.0,286047001.5,N
1509097856.0,286047001.5,N
1509097875.8,286047003.0,N
1509097895.6,286047003.6,N
1509097915.5,286047003.5,N
1509097935.3,286047003.1,N
1509097955.1,286047003.7,N
1509097975.9,286047004.0,N
1509097995.7,286047002.4,N
1509098015.5,286046996.6,N
1509098035.4,286046999.0,N
1509098055.2,286046996.8,N
1509098075.0,286046998.7,N
1509098075.9,286046998.7,N
1509098095.8,286047000.4,N
1509098115.6,286047002.3,N
1509098135.4,286047003.5,N
1509098155.3,286047004.9,N
1509098175.1,286047007.3,N
1509098176.0,286047007.3,N
1509098195.8,286047005.1,N
1509098215.7,286047003.7,N
1509098235.5,286047007.6,N
1509098255.3,286047005.1,N
1509098275.2,286047001.8,N
1509098295.9,286047002.5,N
1509098315.7,286047002.1,N
1509098335.6,286047001.7,N
1509098355.4,286047005.6,N
1509098375.2,286047003.4,N
1509098395.1,286047002.6,N
1509098396.0,286047002.6,N
